Wind_Speed
56 56 56 55 56 56 57 58 59 59 57 56 56 55 54 54 54 54 54 55 55 55 54 53 53 51 50 48 47 47 46 45 45 45 44 43 43 42
56 56 56 56 56 57 57 58 58 58 58 56 56 56 55 55 55 54 54 54 54 55 54 54 53 53 52 51 50 49 48 47 47 46 46 45 45 44
57 57 57 56 57 57 58 58 58 58 58 57 56 56 56 56 55 55 54 54 54 54 54 54 54 53 52 52 51 51 50 49 49 48 47 47 46 46
56 56 57 57 57 57 58 58 59 59 59 60 59 57 57 56 56 56 55 55 54 53 53 54 53 52 52 52 52 52 51 51 50 50 49 49 48 48
54 54 55 56 57 57 58 58 59 60 60 60 59 59 58 56 56 55 56 55 54 53 52 52 53 53 52 53 52 52 52 52 51 51 51 50 50 50
52 52 53 54 55 56 57 57 59 60 61 60 60 59 59 58 57 56 56 56 54 54 54 54 54 53 53 53 53 53 53 53 52 52 52 52 51 51
51 51 51 52 53 54 55 56 57 58 59 60 59 59 59 59 58 56 57 56 56 55 55 55 55 55 55 54 54 53 54 54 53 53 53 52 52 52
50 51 51 51 52 52 53 54 55 56 57 58 58 58 58 58 57 57 56 56 56 55 56 56 56 55 55 55 55 54 54 54 53 53 53 52 52 53
50 51 51 51 51 51 52 53 54 55 55 56 57 56 55 56 56 56 56 57 57 56 57 57 56 56 55 55 55 55 54 54 54 54 53 53 53 53
47 48 49 50 50 50 51 52 53 53 53 54 54 53 53 53 54 55 56 57 57 57 57 57 56 56 56 56 56 55 54 54 54 54 53 54 54 54
44 45 47 48 49 49 50 51 51 52 52 53 53 53 52 52 53 54 55 56 56 56 56 56 56 55 55 55 55 55 54 54 54 54 54 54 54 54
42 43 44 46 47 49 49 48 48 48 49 49 51 52 52 53 53 53 54 55 55 54 54 54 55 55 55 55 54 54 54 54 55 55 55 56 56 55
39 40 41 42 43 45 46 46 45 45 46 47 49 50 52 53 53 53 53 53 53 53 52 53 53 53 54 54 54 53 54 54 54 55 56 56 56 56
37 37 38 38 39 40 41 42 43 44 45 46 47 48 50 52 52 53 53 52 52 52 52 52 52 53 53 53 52 52 53 53 54 54 55 56 55 55
35 35 35 36 37 38 39 40 41 41 42 43 44 45 47 49 50 51 52 52 53 53 52 52 52 53 53 52 52 52 52 53 53 54 54 54 54 53
32 32 33 33 34 35 36 37 39 40 40 41 41 42 44 46 49 50 50 51 51 52 52 52 53 53 53 52 52 51 51 51 51 51 52 52 52 51
32 32 32 32 33 33 34 35 37 38 38 39 40 41 43 45 46 47 48 49 49 50 50 51 51 51 51 51 50 50 50 49 48 49 49 49 49 49
31 32 32 32 32 33 34 34 35 36 37 37 38 39 40 41 43 45 46 47 47 47 47 47 47 48 48 48 47 46 46 46 46 46 47 47 47 47
30 31 31 32 32 32 33 33 33 34 35 35 35 36 37 38 39 41 43 45 45 44 43 43 43 44 43 43 42 43 43 43 44 45 46 46 46 46
29 29 30 30 31 31 31 31 32 32 32 33 33 34 35 35 36 37 38 39 40 40 39 39 40 40 39 39 40 41 42 42 43 43 44 44 44 44
27 27 28 28 28 29 29 30 30 30 30 31 31 31 32 32 33 33 34 35 36 36 37 38 38 38 38 38 38 39 40 40 41 41 41 42 42 43
26 26 26 26 27 28 28 28 29 29 28 28 28 29 30 30 30 31 32 32 33 34 35 35 36 36 36 37 37 38 38 39 39 39 39 40 40 40
27 27 26 26 26 26 27 27 27 27 27 27 27 28 28 28 29 30 30 30 31 32 32 33 34 34 35 35 36 35 36 37 37 38 38 39 39 39
Wind_Direction
253 253 253 252 252 251 251 250 250 249 248 249 248 248 250 251 251 251 252 252 253 253 254 255 255 256 257 258 259 261 261 262 263 265 267 269 270 271
253 253 253 252 252 251 251 250 250 250 249 247 248 248 250 251 251 250 251 251 252 253 254 254 254 255 256 257 258 260 260 261 262 264 266 268 269 271
254 254 253 252 252 251 251 250 250 249 248 247 248 248 249 250 250 250 250 251 251 253 253 253 253 254 255 257 258 259 260 261 262 263 265 267 268 270
255 254 253 252 252 251 251 250 250 249 249 248 248 249 249 249 249 249 249 250 251 251 252 252 253 254 255 256 258 259 259 261 262 263 265 266 267 269
255 254 253 252 252 251 251 250 250 249 248 248 248 248 249 249 249 248 249 250 250 250 251 252 253 253 255 257 257 259 259 261 262 263 265 266 267 269
255 255 254 253 252 251 251 250 249 248 248 247 246 247 248 248 248 248 248 249 249 250 251 252 253 254 255 256 257 259 260 260 262 264 265 266 267 268
255 254 254 254 253 252 251 250 249 248 247 247 246 246 247 247 247 247 248 248 249 250 251 252 253 255 255 256 257 259 260 261 263 264 265 266 267 268
255 254 253 253 253 253 252 250 249 248 247 246 246 246 246 246 246 247 247 247 249 250 252 253 253 254 255 256 257 258 260 261 263 265 266 267 268 269
256 255 253 253 253 253 252 251 250 249 248 247 246 246 245 246 247 248 248 248 249 250 251 253 254 254 255 257 258 258 260 261 263 264 265 267 268 269
255 254 253 252 252 252 252 251 250 249 248 247 246 245 245 245 246 247 248 249 249 250 252 253 254 256 256 258 259 259 260 261 262 264 265 266 268 268
255 254 253 252 251 251 251 251 251 249 247 246 246 244 244 245 246 246 247 249 250 251 253 254 254 256 256 257 259 259 260 261 262 263 265 266 267 267
255 254 253 252 250 250 250 249 248 247 247 246 246 244 244 244 245 247 248 249 249 251 252 254 255 256 256 256 257 258 260 261 261 263 265 266 267 267
254 253 252 252 251 250 249 247 246 246 245 245 245 244 244 245 245 246 248 249 250 251 252 253 255 255 256 256 257 258 260 261 263 264 265 266 266 267
256 254 252 251 250 248 247 245 244 244 245 245 246 246 246 246 246 247 248 250 251 253 253 255 255 256 257 258 257 258 260 261 263 264 265 266 266 267
257 256 254 252 249 247 246 245 244 244 246 246 246 247 248 247 247 248 249 250 252 253 254 255 255 256 258 259 259 259 260 261 263 264 264 266 266 267
256 255 254 251 249 248 247 245 245 245 246 246 246 248 249 249 249 249 250 251 252 253 254 254 255 256 258 259 259 259 260 262 263 263 263 265 266 266
255 254 253 251 249 248 248 247 246 246 247 248 248 249 250 250 250 249 249 250 250 251 253 254 255 256 258 259 259 259 260 261 262 263 264 265 266 266
254 253 253 251 250 249 249 248 247 247 248 248 248 249 250 250 250 250 249 249 249 251 253 254 254 255 257 258 259 259 260 261 262 263 264 265 265 266
256 254 253 251 248 248 247 247 248 248 249 250 250 249 250 251 252 251 250 250 250 250 252 253 253 253 255 256 258 259 260 261 262 264 264 265 266 266
254 252 250 249 247 245 245 246 247 248 249 250 250 250 251 253 253 252 252 251 250 250 251 251 251 252 255 256 258 259 260 262 263 264 264 265 267 268
251 250 249 248 246 245 244 245 247 248 250 251 250 250 251 252 253 253 252 251 250 250 250 250 250 253 255 257 259 259 261 263 264 264 264 266 267 268
250 248 246 245 245 245 245 246 248 249 250 250 250 250 250 252 252 252 252 251 251 251 250 250 252 254 257 259 260 261 262 264 265 266 266 267 268 268
247 245 245 245 245 244 245 245 246 248 249 250 250 250 250 251 252 252 252 253 253 252 252 253 254 257 258 260 261 262 264 265 266 267 267 268 269 270
Height
5617 5620 5623 5626 5629 5632 5636 5640 5645 5650 5655 5660 5663 5666 5669 5673 5676 5680 5683 5686 5690 5693 5696 5699 5702 5704 5706 5709 5711 5712 5714 5715 5716 5717 5718 5719 5719 5719
5601 5604 5608 5610 5613 5616 5620 5624 5628 5633 5639 5645 5648 5652 5654 5658 5662 5665 5669 5672 5675 5679 5682 5685 5688 5691 5693 5695 5698 5700 5701 5703 5705 5706 5707 5707 5708 5707
5585 5588 5592 5594 5597 5601 5604 5608 5612 5617 5623 5629 5632 5636 5640 5644 5647 5651 5654 5657 5661 5664 5667 5671 5674 5677 5679 5682 5684 5686 5688 5690 5692 5693 5694 5695 5695 5695
5569 5572 5575 5578 5581 5584 5588 5592 5596 5600 5606 5612 5617 5620 5625 5629 5633 5636 5640 5643 5647 5650 5653 5656 5659 5663 5665 5668 5670 5673 5675 5677 5679 5680 5682 5683 5683 5682
5553 5556 5559 5562 5565 5568 5571 5575 5580 5584 5589 5595 5601 5605 5609 5613 5617 5621 5625 5629 5632 5636 5639 5642 5645 5648 5651 5654 5656 5659 5661 5664 5666 5666 5667 5668 5669 5669
5538 5540 5543 5546 5549 5552 5555 5559 5563 5567 5572 5577 5584 5588 5593 5597 5601 5606 5610 5614 5618 5621 5624 5628 5630 5633 5637 5640 5643 5645 5647 5649 5650 5652 5653 5654 5655 5655
5523 5525 5528 5531 5534 5536 5540 5543 5547 5551 5556 5561 5567 5572 5577 5581 5586 5590 5594 5599 5603 5606 5610 5613 5617 5620 5622 5625 5628 5630 5632 5634 5636 5637 5638 5640 5640 5641
5508 5511 5513 5516 5518 5521 5524 5528 5531 5535 5540 5545 5550 5556 5561 5566 5570 5574 5578 5583 5589 5594 5595 5598 5601 5604 5607 5610 5613 5615 5617 5619 5621 5622 5624 5625 5625 5626
5493 5496 5498 5501 5503 5506 5510 5513 5516 5520 5525 5530 5535 5540 5546 5552 5556 5560 5563 5566 5572 5576 5578 5582 5585 5589 5592 5594 5597 5600 5602 5603 5605 5607 5608 5610 5610 5611
5478 5480 5483 5487 5489 5492 5495 5498 5502 5506 5510 5515 5521 5527 5530 5535 5539 5544 5547 5551 5556 5559 5562 5567 5570 5573 5576 5579 5581 5584 5586 5588 5590 5591 5593 5594 5595 5595
5464 5466 5468 5472 5475 5478 5480 5484 5488 5492 5495 5500 5505 5510 5515 5520 5524 5528 5532 5536 5541 5545 5547 5551 5555 5558 5561 5563 5566 5568 5570 5572 5574 5576 5577 5578 5579 5579
5451 5453 5455 5457 5460 5462 5465 5469 5474 5478 5482 5486 5490 5495 5500 5504 5509 5513 5517 5521 5526 5530 5533 5536 5540 5542 5546 5549 5550 5552 5555 5557 5559 5560 5561 5562 5563 5563
5439 5440 5442 5444 5446 5449 5452 5456 5461 5465 5469 5473 5477 5481 5485 5490 5494 5498 5502 5507 5511 5516 5519 5521 5524 5526 5529 5533 5535 5537 5539 5541 5543 5544 5545 5546 5546 5547
5427 5429 5430 5432 5434 5436 5439 5443 5448 5452 5456 5459 5463 5467 5471 5476 5480 5484 5488 5492 5496 5500 5503 5506 5509 5511 5514 5517 5520 5522 5523 5525 5527 5528 5529 5530 5530 5531
5417 5418 5420 5421 5423 5425 5428 5432 5436 5439 5443 5447 5451 5455 5458 5462 5466 5470 5474 5477 5481 5484 5487 5490 5493 5495 5498 5501 5504 5507 5508 5510 5511 5512 5513 5514 5515 5515
5407 5408 5409 5411 5413 5415 5418 5421 5424 5428 5432 5436 5439 5443 5446 5449 5452 5456 5459 5463 5467 5470 5472 5475 5478 5481 5484 5486 5489 5491 5493 5495 5496 5497 5498 5499 5499 5500
5398 5399 5400 5402 5404 5406 5409 5411 5415 5418 5421 5425 5428 5431 5434 5436 5439 5442 5446 5449 5453 5456 5459 5461 5463 5466 5469 5471 5474 5476 5478 5479 5481 5482 5483 5484 5485 5485
5389 5390 5391 5393 5395 5397 5400 5402 5405 5408 5411 5414 5417 5420 5422 5425 5427 5430 5433 5437 5440 5443 5445 5447 5449 5452 5455 5457 5460 5462 5463 5465 5467 5468 5468 5470 5471 5471
5380 5381 5383 5384 5386 5388 5391 5394 5396 5399 5401 5404 5407 5409 5412 5414 5416 5419 5421 5424 5427 5430 5432 5434 5436 5439 5442 5445 5447 5448 5450 5452 5453 5454 5454 5455 5456 5457
5371 5372 5374 5376 5378 5380 5382 5385 5388 5390 5392 5394 5396 5399 5401 5403 5406 5408 5410 5412 5415 5418 5420 5422 5425 5427 5430 5433 5435 5437 5437 5438 5439 5440 5441 5441 5442 5442
5363 5364 5366 5367 5369 5372 5374 5377 5379 5381 5383 5385 5387 5389 5391 5393 5396 5397 5400 5402 5404 5407 5409 5412 5414 5416 5418 5420 5422 5424 5425 5425 5425 5426 5427 5428 5428 5428
5355 5357 5358 5360 5362 5364 5366 5369 5371 5373 5375 5376 5378 5380 5382 5384 5386 5388 5390 5392 5395 5397 5399 5401 5403 5405 5407 5409 5410 5412 5413 5413 5413 5413 5414 5414 5414 5415
5348 5349 5351 5353 5355 5357 5359 5361 5363 5365 5367 5368 5370 5372 5374 5376 5378 5380 5382 5383 5385 5388 5390 5392 5394 5395 5396 5398 5399 5400 5401 5402 5402 5402 5402 5401 5402 5402